Malmstrom AFB, MT

4:43 PM MDT on June 23, 2018 (GMT -0600)
Malmstrom AFB

Weather History for KGFA - November, 2017

Change the Weather History Date:

Wednesday, November 15, 2017

  Actual Average (KGTF) Record (KGTF)
Temperature  
Mean Temperature 36 °F -  
Max Temperature 48 °F 45 °F 69 °F (1934)
Min Temperature 25 °F 27 °F -19 °F (1959)
Degree Days  
Heating Degree Days 28    
Moisture  
Dew Point 22 °F    
Average Humidity 56    
Maximum Humidity 79    
Minimum Humidity 32    
Precipitation  
Precipitation 0.00 in - - ()
Sea Level Pressure  
Sea Level Pressure 29.93 in    
Wind  
Wind Speed 10 mph (SSW)    
Max Wind Speed 26 mph    
Max Gust Speed 34 mph    
Visibility 10 miles    
Events      
Averages and records for this station are not official NWS values.
T = Trace of Precipitation, MM = Missing Value Source: NWS Daily Summary

Daily Weather History Graph

Daily Weather History Graph

Search for Another Location

Airport or City:

Astronomy

Nov. 15, 2017 Rise Set
Actual Time 7:30 AM MST 4:48 PM MST
Civil Twilight 6:56 AM MST 5:21 PM MST
Nautical Twilight 6:19 AM MST 5:59 PM MST
Astronomical Twilight 5:42 AM MST 6:35 PM MST
Moon 4:18 AM MST (11/15) 3:59 PM MST (11/15)
Length of Visible Light 10h 25m
Length of Day
9h 18m
Waning Crescent, 7% of the Moon is Illuminated
Nov 15
Waning Crescent
Nov 18
New
Nov 26
First Quarter
Dec 3
Full
Dec 10
Last Quarter

Hourly Weather History & Observations

Time (MST) Temp. Windchill Dew Point Humidity Pressure Visibility Wind Dir Wind Speed Gust Speed Precip Events Conditions
12:58 AM 28.0 °F 21.7 °F 20.8 °F 74% 30.18 in 10.0 mi SW 5.8 mph - N/A   Partly Cloudy
1:58 AM 27.0 °F 19.5 °F 20.8 °F 78% 30.16 in 10.0 mi SSE 6.9 mph - N/A   Mostly Cloudy
2:58 AM 33.4 °F 25.4 °F 21.0 °F 60% 30.13 in 10.0 mi SSW 10.4 mph 21.9 mph N/A   Mostly Cloudy
3:58 AM 31.6 °F 23.1 °F 20.7 °F 64% 30.12 in 10.0 mi SSW 10.4 mph - N/A   Clear
4:58 AM 31.6 °F 24.4 °F 21.6 °F 66% 30.11 in 10.0 mi SSW 8.1 mph - N/A   Mostly Cloudy
5:58 AM 30.6 °F 21.8 °F 20.7 °F 67% 30.10 in 10.0 mi South 10.4 mph - N/A   Mostly Cloudy
6:58 AM 25.9 °F 16.6 °F 20.1 °F 79% 30.09 in 10.0 mi SSE 9.2 mph - N/A   Clear
7:58 AM 27.9 °F 24.0 °F 19.4 °F 71% 30.06 in 10.0 mi SSE 3.5 mph - N/A   Partly Cloudy
8:58 AM 28.9 °F - 22.3 °F 76% 30.04 in 10.0 mi Calm Calm - N/A   Clear
9:58 AM 36.3 °F 33.7 °F 22.8 °F 58% 30.00 in 10.0 mi ESE 3.5 mph - N/A   Clear
10:58 AM 43.0 °F 35.4 °F 18.9 °F 38% 29.99 in 10.0 mi SSW 16.1 mph - N/A   Clear
11:58 AM 45.5 °F 36.5 °F 17.6 °F 33% 29.92 in 10.0 mi SSW 26.5 mph 34.5 mph N/A   Clear
12:58 PM 45.0 °F 37.1 °F 19.4 °F 36% 29.90 in 10.0 mi SSW 19.6 mph - N/A   Clear
1:58 PM 48.0 °F - 19.2 °F 32% 29.88 in 10.0 mi SSW 19.6 mph 28.8 mph N/A   Clear
2:58 PM 45.5 °F 38.6 °F 20.7 °F 37% 29.84 in 10.0 mi SSW 16.1 mph - N/A   Clear
3:58 PM 45.1 °F 37.1 °F 21.6 °F 39% 29.83 in 10.0 mi SSW 20.7 mph - N/A   Clear
4:58 PM 37.2 °F 29.1 °F 22.1 °F 54% 29.83 in 10.0 mi SW 12.7 mph - N/A   Clear
5:58 PM 36.3 °F 29.5 °F 22.5 °F 57% 29.81 in 10.0 mi SSW 9.2 mph - N/A   Clear
6:58 PM 38.3 °F 29.7 °F 23.2 °F 55% 29.79 in 10.0 mi SSW 15.0 mph - N/A   Clear
7:58 PM 36.3 °F 28.9 °F 23.4 °F 59% 29.78 in 10.0 mi SW 10.4 mph - N/A   Clear
8:58 PM 37.6 °F 34.0 °F 23.4 °F 57% 29.75 in 10.0 mi SW 4.6 mph - N/A   Clear
9:58 PM 38.8 °F 33.8 °F 24.8 °F 57% 29.70 in 10.0 mi South 6.9 mph - N/A   Clear
10:58 PM 39.9 °F 30.8 °F 25.7 °F 57% 29.65 in 10.0 mi SSW 18.4 mph - N/A   Scattered Clouds
11:58 PM 44.2 °F 37.6 °F 25.3 °F 47% 29.61 in 10.0 mi South 13.8 mph - N/A   Mostly Cloudy